GSAT0208 (GALILEO 11)

Last updated on Sun Apr 12 2026 00:02:39 GMT+0000 (Coordinated Universal Time)

1 41175U 15079B 26100.80180002 .00000059 00000+0 00000+0 0 9990 2 41175 55.7832 103.1055 0004982 328.0340 31.9633 1.70474208 64040
UTC large
Height (km)
Speed (km/s)
/
Latitude / Longitude
Inclination (degrees)
Orbital Period (minutes)
Azimuth
Elevation
Range (km)
Doppler Factor

Next 0 passes for location: London (51.5072 / 0.1276)

Sorry there are no passes over London.